Stations météo

réclame
Mon MeteoGroup
Kirkwall, Grande-Bretagne (3017): Température de l'air & dewpoint: 10.07.2019 11:00:00 - 16.07.2019 11:00:00 (BST)Kirkwall, Grande-Bretagne (3017): Température de l'air -20cm & Température de l'air -100cm: 10.07.2019 11:00:00 - 16.07.2019 11:00:00 (BST)Kirkwall, Grande-Bretagne (3017): Vitesse du vent: 10.07.2019 11:00:00 - 16.07.2019 11:00:00 (BST)Kirkwall, Grande-Bretagne (3017): Direction du vent: 10.07.2019 11:00:00 - 16.07.2019 11:00:00 (BST)Kirkwall, Grande-Bretagne (3017): reduced air pressure: 10.07.2019 11:00:00 - 16.07.2019 11:00:00 (BST)Kirkwall, Grande-Bretagne (3017): visibility: 10.07.2019 11:00:00 - 16.07.2019 11:00:00 (BST)Kirkwall, Grande-Bretagne (3017): Ensoleillement: 10.07.2019 11:00:00 - 16.07.2019 11:00:00 (BST)Kirkwall, Grande-Bretagne (3017): Quantités de précipitations: 10.07.2019 11:00:00 - 16.07.2019 11:00:00 (BST)
Date & Time tt [°C] td [°C] tt -20cm [°C] tt -100cm [°C] ff [km/h] ff [knt] dd ppp [hPa] vv [km] sd [min] rr [mm]
16.07.2019 11:00:00 14,4 12,9 - - 16 9 SSE 1015,6 14 0 -
16.07.2019 10:00:00 13,1 12,0 - - 16 9 S 1016,2 3,2 0 -
16.07.2019 09:00:00 13,4 12,6 - - 11 6 SSE 1016,2 7 0 0,0
16.07.2019 08:00:00 13,1 12,3 - - 15 8 SSE 1016,6 8 0 0,0
16.07.2019 07:00:00 12,4 11,8 - - 5 3 SE 1017,0 14 0 0,0
16.07.2019 06:00:00 10,7 10,1 - - 5 3 SE 1017,1 13 0 0,0
16.07.2019 05:00:00 10,7 10,1 - - 15 8 S 1017,2 18 0 0,0
16.07.2019 04:00:00 10,6 9,9 - - 15 8 S 1017,5 21 0 0,0
16.07.2019 03:00:00 9,0 8,0 - - 5 3 WSW 1018,0 30 0 0,0
16.07.2019 02:00:00 10,9 10,0 - - 9 5 S 1018,3 35 0 0,0
16.07.2019 01:00:00 11,3 10,6 - - 13 7 SSW 1018,7 40 - 0,0
16.07.2019 00:00:00 11,0 10,2 - - 9 5 SSW 1019,1 25 0 0,0
15.07.2019 23:00:00 11,1 10,2 - - 18 10 SSW 1019,4 30 0 0,0
15.07.2019 22:00:00 11,5 10,2 - - 16 9 S 1019,4 55 12 0,0
15.07.2019 21:00:00 12,9 10,5 - - 15 8 S 1019,7 60 60 0,0
15.07.2019 20:00:00 14,5 11,7 - - 9 5 SSE 1019,7 50 60 0,0
15.07.2019 19:00:00 14,5 11,5 - - 15 8 S 1019,9 35 60 0,0
15.07.2019 18:00:00 16,4 12,1 - - 8 4 E 1020,0 40 60 0,0
15.07.2019 17:00:00 16,9 12,7 - - 11 6 E 1020,4 60 60 0,0
15.07.2019 16:00:00 17,8 13,4 - - 15 8 NNE 1020,6 65 60 0,0
15.07.2019 15:00:00 17,8 12,7 - - 9 5 N 1020,8 75 54 0,0
15.07.2019 14:00:00 17,1 12,6 - - 5 3 N 1021,2 70 12 0,0
15.07.2019 13:00:00 15,8 11,6 - - 8 4 N 1021,4 75 0 0,0
15.07.2019 12:00:00 15,2 11,4 - - 8 4 N 1021,7 70 0 0,0
15.07.2019 11:00:00 15,1 11,4 - - 0 0 N 1021,8 65 0 0,0
15.07.2019 10:00:00 14,3 10,9 14,2 12,7 5 3 W 1021,9 75 0 0,0
15.07.2019 09:00:00 13,6 10,6 - - 5 3 WSW 1022,2 75 0 0,0
15.07.2019 08:00:00 13,2 10,4 - - 5 3 W 1022,3 75 0 0,0
15.07.2019 07:00:00 12,6 10,3 - - 4 2 W 1022,4 65 12 0,0
15.07.2019 06:00:00 11,6 10,0 - - 0 0 N 1022,8 60 0 0,0
15.07.2019 05:00:00 11,4 10,1 - - 9 5 WSW 1022,9 55 0 0,0
15.07.2019 04:00:00 11,3 9,7 - - 11 6 SSW 1023,1 50 0 0,0
15.07.2019 03:00:00 11,2 9,7 - - 8 4 SSW 1023,7 55 0 0,0
15.07.2019 02:00:00 11,5 9,3 - - 13 7 SSW 1024,0 55 0 0,0
15.07.2019 01:00:00 11,2 9,3 - - 8 4 SSW 1024,2 50 - 0,0
15.07.2019 00:00:00 11,4 8,7 - - 0 0 N 1024,3 60 0 0,0
14.07.2019 23:00:00 11,6 8,4 - - 4 2 NW 1024,6 70 0 0,0
14.07.2019 22:00:00 12,1 8,7 - - 15 8 N 1024,6 65 0 0,0
14.07.2019 21:00:00 12,3 8,8 - - 13 7 WNW 1024,7 60 0 0,0
14.07.2019 20:00:00 12,7 9,2 - - 13 7 NNW 1024,9 55 0 0,0
14.07.2019 19:00:00 13,3 8,5 - - 15 8 WNW 1025,1 60 6 0,0
14.07.2019 18:00:00 14,1 8,9 - - 16 9 WNW 1025,1 75 6 0,0
14.07.2019 17:00:00 13,8 10,1 - - 11 6 N 1025,3 70 0 0,0
14.07.2019 16:00:00 13,8 9,6 - - 15 8 N 1025,6 65 0 0,0
14.07.2019 15:00:00 13,2 10,4 - - 16 9 NNW 1025,7 15 0 0,0
14.07.2019 14:00:00 12,8 11,2 - - 15 8 NNW 1025,5 24 0 0,0
14.07.2019 13:00:00 13,4 10,4 - - 16 9 NNW 1025,4 30 0 0,0
14.07.2019 12:00:00 13,6 10,1 - - 13 7 N 1025,4 60 0 0,0
14.07.2019 11:00:00 13,8 11,3 - - 15 8 NNW 1025,5 60 0 0,0
14.07.2019 10:00:00 12,5 11,6 14,2 12,5 16 9 N 1025,4 40 0 0,0
14.07.2019 09:00:00 12,4 11,6 - - 21 11 NNW 1025,2 30 0 0,0
14.07.2019 08:00:00 12,7 11,9 - - 13 7 NW 1024,8 7 0 0,2
14.07.2019 07:00:00 12,4 11,7 - - 11 6 WNW 1024,6 5 0 0,0
14.07.2019 06:00:00 11,9 11,2 - - 9 5 NW 1024,5 4,4 0 0,2
14.07.2019 05:00:00 11,6 10,8 - - 11 6 WNW 1024,4 45 0 0,0
14.07.2019 04:00:00 11,6 10,8 - - 11 6 WNW 1024,4 60 0 0,0
14.07.2019 03:00:00 11,4 10,5 - - 11 6 NW 1024,8 35 0 0,0
14.07.2019 02:00:00 11,1 10,4 - - 15 8 NW 1025,0 75 0 0,0
14.07.2019 01:00:00 11,3 10,6 - - 11 6 NW 1024,6 6 - 0,2
14.07.2019 00:00:00 11,5 10,8 - - 18 10 NNW 1024,4 25 0 0,0
13.07.2019 23:00:00 11,7 10,9 - - 15 8 NW 1024,2 10 0 0,2
13.07.2019 22:00:00 11,8 11,0 - - 11 6 NW 1024,1 30 0 0,0
13.07.2019 21:00:00 12,2 11,0 - - 16 9 NW 1023,7 10 0 0,0
13.07.2019 20:00:00 12,7 11,3 - - 18 10 NW 1023,5 7 0 0,0
13.07.2019 19:00:00 13,4 11,2 - - 22 12 WNW 1023,1 30 0 0,0
13.07.2019 18:00:00 14,1 11,7 - - 22 12 NW 1022,7 25 0 0,0
13.07.2019 17:00:00 15,5 12,3 - - 22 12 NW 1022,4 35 0 0,0
13.07.2019 16:00:00 15,0 12,1 - - 22 12 WNW 1022,2 50 0 0,0
13.07.2019 15:00:00 14,0 12,4 - - 22 12 W 1022,0 8 0 0,0
13.07.2019 14:00:00 15,0 11,5 - - 24 13 WNW 1021,7 50 6 0,0
13.07.2019 13:00:00 15,6 11,9 - - 24 13 WNW 1021,5 75 6 0,0
13.07.2019 12:00:00 15,6 12,8 - - 21 11 WNW 1021,3 40 6 0,0
13.07.2019 11:00:00 14,6 12,7 - - 21 11 WNW 1021,2 30 6 0,0
13.07.2019 10:00:00 14,0 12,7 14,2 12,5 22 12 WNW 1021,0 65 0 0,2
13.07.2019 09:00:00 13,6 12,4 - - 21 11 WNW 1020,9 65 0 0,0
13.07.2019 08:00:00 12,9 12,3 - - 16 9 W 1020,5 1,9 0 0,0
13.07.2019 07:00:00 11,7 10,9 - - 13 7 WSW 1020,3 5 0 0,0
13.07.2019 06:00:00 11,2 10,2 - - 2 1 WSW 1020,2 12 0 0,0
13.07.2019 05:00:00 11,2 9,9 - - 0 0 N 1020,3 18 0 0,0
13.07.2019 04:00:00 10,9 9,5 - - 0 0 N 1020,3 19 0 0,0
13.07.2019 03:00:00 10,8 9,3 - - 0 0 N 1020,3 19 0 0,0
13.07.2019 02:00:00 11,2 9,1 - - 0 0 N 1020,3 26 0 0,0
13.07.2019 01:00:00 11,3 9,1 - - 5 3 N 1020,2 30 - 0,0
13.07.2019 00:00:00 11,2 9,0 - - 4 2 N 1020,1 30 0 0,0
12.07.2019 23:00:00 11,2 8,8 - - 8 4 N 1019,9 30 0 0,0
12.07.2019 22:00:00 11,4 8,9 - - 11 6 N 1019,6 35 0 0,0
12.07.2019 21:00:00 11,4 9,0 - - 11 6 NNW 1019,2 30 0 0,0
12.07.2019 20:00:00 11,7 9,1 - - 11 6 NNE 1018,7 30 0 0,0
12.07.2019 19:00:00 12,4 9,5 - - 15 8 N 1018,4 35 0 0,0
12.07.2019 18:00:00 12,4 9,2 - - 13 7 N 1018,1 30 0 0,0
12.07.2019 17:00:00 12,6 8,9 - - 13 7 NNE 1017,7 35 0 0,0
12.07.2019 16:00:00 13,0 9,5 - - 15 8 N 1017,3 40 0 0,0
12.07.2019 15:00:00 12,8 9,9 - - 16 9 N 1017,4 30 0 0,0
12.07.2019 14:00:00 12,6 9,2 - - 13 7 NNE 1016,5 30 0 0,0
12.07.2019 13:00:00 12,7 9,3 - - 15 8 NNE 1016,3 35 0 0,0
12.07.2019 12:00:00 12,5 9,3 - - 15 8 NNE 1015,9 40 0 0,0
12.07.2019 11:00:00 12,7 10,1 - - 16 9 NE 1015,2 30 0 0,0
12.07.2019 10:00:00 12,1 10,0 14,0 12,4 18 10 NNE 1014,9 28 0 0,0
12.07.2019 09:00:00 12,0 10,1 - - 18 10 NE 1014,3 30 0 0,0
12.07.2019 08:00:00 11,7 10,2 - - 16 9 NNE 1014,0 27 0 0,0
12.07.2019 07:00:00 11,5 10,3 - - 15 8 NE 1013,3 27 0 0,0
12.07.2019 06:00:00 11,2 10,2 - - 16 9 NE 1012,7 24 0 0,0
12.07.2019 05:00:00 10,9 10,1 - - 16 9 NE 1012,3 24 0 0,0
12.07.2019 04:00:00 10,5 9,8 - - 15 8 ENE 1011,9 19 0 0,0
12.07.2019 03:00:00 10,9 10,3 - - 18 10 ENE 1011,7 20 0 0,0
12.07.2019 02:00:00 11,0 10,4 - - 16 9 ENE 1011,4 12 0 0,6
12.07.2019 01:00:00 11,3 10,9 - - 16 9 ENE 1011,1 8 - 0,0
12.07.2019 00:00:00 11,5 11,1 - - 18 10 ENE 1010,9 8 0 0,4
11.07.2019 23:00:00 11,7 11,3 - - 21 11 E 1010,6 5 0 1,6
11.07.2019 22:00:00 11,8 11,4 - - 18 10 E 1010,4 2,9 0 1,6
11.07.2019 21:00:00 11,9 11,5 - - 18 10 E 1010,0 4,7 0 1,0
11.07.2019 20:00:00 12,1 11,7 - - 21 11 E 1009,7 3,0 0 2,4
11.07.2019 19:00:00 12,4 12,0 - - 21 11 E 1009,5 1,9 0 1,0
11.07.2019 18:00:00 12,7 12,2 - - 21 11 E 1009,5 2,0 0 0,2
11.07.2019 17:00:00 12,8 12,3 - - 21 11 E 1009,4 1,4 0 0,0
11.07.2019 16:00:00 13,0 12,6 - - 22 12 ESE 1009,1 3,7 0 0,0
11.07.2019 15:00:00 13,6 13,2 - - 24 13 E 1008,8 2,4 0 0,0
11.07.2019 14:00:00 13,8 13,4 - - 22 12 E 1008,9 9 0 0,2
11.07.2019 13:00:00 13,6 13,3 - - 22 12 ESE 1008,9 6 0 0,0
11.07.2019 12:00:00 13,3 13,0 - - 22 12 ESE 1009,0 1,6 0 0,0
11.07.2019 11:00:00 13,0 12,7 - - 18 10 ESE 1009,1 1,0 0 0,2
11.07.2019 10:00:00 13,1 12,8 14,2 12,2 18 10 ESE 1009,1 1,8 0 0,0
11.07.2019 09:00:00 13,2 12,8 - - 16 9 ESE 1008,9 0,5 0 0,0
11.07.2019 08:00:00 12,7 12,4 - - 15 8 ESE 1009,0 0,6 0 0,0
11.07.2019 07:00:00 12,5 12,1 - - 15 8 ESE 1009,0 0,3 0 0,0
11.07.2019 06:00:00 12,4 12,1 - - 18 10 SE 1009,1 0,5 0 0,0
11.07.2019 05:00:00 12,5 12,1 - - 18 10 SE 1009,3 0,2 0 0,0
11.07.2019 04:00:00 12,4 12,1 - - 16 9 ESE 1009,5 0,3 0 0,0
11.07.2019 03:00:00 12,6 12,2 - - 13 7 ESE 1010,1 0,4 0 0,0
11.07.2019 02:00:00 12,6 12,2 - - 16 9 ESE 1010,4 0,4 0 0,0
11.07.2019 01:00:00 12,3 11,9 - - 11 6 ESE 1010,9 0,3 - 0,0
11.07.2019 00:00:00 12,4 12,0 - - 9 5 SE 1011,4 0,3 0 0,0
10.07.2019 23:00:00 12,2 11,8 - - 15 8 SE 1011,3 0,3 0 0,0
10.07.2019 22:00:00 12,6 12,2 - - 16 9 ESE 1011,4 0,9 0 0,0
10.07.2019 21:00:00 13,0 12,5 - - 15 8 ESE 1011,8 0,3 0 0,0
10.07.2019 20:00:00 13,4 12,8 - - 11 6 ESE 1012,1 0,1 0 0,0
10.07.2019 19:00:00 14,5 13,4 - - 18 10 SSE 1012,2 0,5 0 0,0
10.07.2019 18:00:00 15,7 14,2 - - 21 11 SSE 1012,3 11 36 0,0
10.07.2019 17:00:00 17,7 14,6 - - 21 11 SE 1012,4 45 60 0,0
10.07.2019 16:00:00 18,2 14,8 - - 15 8 SE 1012,6 65 60 0,0
10.07.2019 15:00:00 18,1 14,7 - - 16 9 ESE 1013,0 55 42 0,0
10.07.2019 14:00:00 17,5 15,1 - - 15 8 SE 1013,4 45 6 0,0
10.07.2019 13:00:00 17,1 14,5 - - 9 5 SSE 1013,4 55 0 0,0
10.07.2019 12:00:00 15,9 14,4 - - 0 0 N 1013,7 45 0 0,0
10.07.2019 11:00:00 15,1 14,0 - - 5 3 SSW 1013,8 50 0 -

tt = Température de l'air
td = dewpoint
tt -20cm = Température de l'air -20cm
tt -100cm = Température de l'air -100cm
ff = Vitesse du vent
dd = Direction du vent
ppp = reduced air pressure
vv = visibility
sd = Ensoleillement
rr = Quantités de précipitations

stations d'obs. à proximité